PEGASUS DEB, 39307

Orbit data source: Space-Track

PEGASUS DEB, 39307 is space debris in LEO originally from a launch on Thu, 19 May 1994 UTC launched from the Air Force Western Test Range (AFWTR). Debris objects in space refer to the collection of defunct objects orbiting the Earth. Examples of debris include non-operational satellites, rocket bodies, and fragments generated from explosions, collisions, or faulty payload assembly.

Loading next visibility...
Identifier
39307, 1994-029AES
Orbit
LEO
Country
Flag of USUS
Related business
Manufacturer
Unknown
Mission
Spacecraft
Bus & Motor
Unknown
Mass
Unknown
Launch date (UTC)
1994-05-19 (32 years ago)
Launch vehicle
Unknown
Launch site
Air Force Western Test Range (AFWTR)
Object type
Payload
Rocket body
Debris
Shape & HBR
Unknown shape, 0.1 m
Radar Cross Section
Small (<0.1 m²)

Expand to show TLE details & history
Last TLE update: 1 day ago

TLE from 1 day ago
0 PEGASUS DEB
1 39307U 94029AES 26106.48838191  .00023010  00000-0  70187-3 0  9995
2 39307  81.9381 291.9452 0069168 321.3716  38.2585 15.31409795774158
Epoch: 2026-04-16T11:43Z
TLE epoch observation values (Epoch: 2026-04-16T11:43:16.197Z)
Latitude
0.00001°
Longitude
-88.50749°
Altitude
437.607 km
Speed
7.67 km/s
True Right ascension
19h 27m 46s
True Declination
0° 00' 00"
Sunlit
Object was in daylight at epoch
Visualization orbit readout
Latitude
Unknown
Longitude
Unknown
Altitude
Unknown
Speed
Unknown
Apparent Right ascension
Unknown
Apparent Declination
Unknown
Sunlit
N/A
Visualization observer readout
Local Sidereal Time
01:19:37
Azimuth
Unknown
Elevation
Unknown
Doppler factor
Unknown
Orbital elements
Apogee altitude
515.942 km
Perigee altitude
421.228 km
Semi-major axis
6,846.722 km
Eccentricity
0.00692
Inclination
81.9381°
RAAN
291.9452°
Arg. of periapsis
321.3716°
True anomaly
38.75264°
Mean anomaly
38.2585°
Eccentric anomaly
38.50523°
Mean motion
3.83106 °/min
Orbital period
93.97 mins
BSTAR
0.00070187
Loading maneuver chart data...
Computing Atmospheric mass density...

Documentation

Showing up to 5 results
|